Time,TemperatureF,DewpointF,PressureIn,WindDirection,WindDirectionDegrees,WindSpeedMPH,WindSpeedGustMPH,Humidity,HourlyPrecipIn,Conditions,Clouds,dailyrainin,SoftwareType,DateUTC
2013-04-01 00:00:00,24.6,14.9,30.13,ENE,66,2.0,9.0,66,0.00,,,0.00,meteohub,2013-04-01 05:00:00,
2013-04-01 00:05:00,24.4,14.7,30.13,East,82,4.0,9.0,66,0.00,,,0.00,meteohub,2013-04-01 05:05:00,
2013-04-01 00:10:00,24.4,14.7,30.13,NNE,26,3.0,8.0,66,0.00,,,0.00,meteohub,2013-04-01 05:10:00,
2013-04-01 00:15:00,24.3,14.9,30.14,ENE,74,4.0,10.0,67,0.00,,,0.00,meteohub,2013-04-01 05:15:00,
2013-04-01 00:20:00,24.1,14.7,30.14,NE,56,6.0,10.0,67,0.00,,,0.00,meteohub,2013-04-01 05:20:00,
2013-04-01 00:26:00,24.1,14.7,30.14,NE,42,2.0,6.0,67,0.00,,,0.00,meteohub,2013-04-01 05:26:00,
2013-04-01 00:31:00,23.9,14.5,30.14,NE,55,1.0,10.0,67,0.00,,,0.00,meteohub,2013-04-01 05:31:00,
2013-04-01 00:36:00,23.7,14.4,30.14,NE,41,2.0,10.0,67,0.00,,,0.00,meteohub,2013-04-01 05:36:00,
2013-04-01 00:42:00,23.5,14.2,30.14,ENE,59,5.0,10.0,67,0.00,,,0.00,meteohub,2013-04-01 05:42:00,
2013-04-01 00:47:00,23.5,14.2,30.15,ENE,67,2.0,10.0,67,0.00,,,0.00,meteohub,2013-04-01 05:47:00,
2013-04-01 00:52:00,23.5,14.2,30.15,NE,44,0.0,10.0,67,0.00,,,0.00,meteohub,2013-04-01 05:52:00,
2013-04-01 00:57:00,23.4,14.0,30.15,East,84,0.0,9.0,67,0.00,,,0.00,meteohub,2013-04-01 05:57:00,
2013-04-01 01:02:00,23.4,14.4,30.15,NE,47,1.0,9.0,68,0.00,,,0.00,meteohub,2013-04-01 06:02:00,
2013-04-01 01:07:00,23.2,14.2,30.15,ENE,59,1.0,9.0,68,0.00,,,0.00,meteohub,2013-04-01 06:07:00,
2013-04-01 01:13:00,23.2,14.2,30.15,ENE,78,4.0,7.0,68,0.00,,,0.00,meteohub,2013-04-01 06:13:00,
2013-04-01 01:18:00,23.0,14.0,30.15,ENE,66,1.0,7.0,68,0.00,,,0.00,meteohub,2013-04-01 06:18:00,
2013-04-01 01:23:00,22.8,13.8,30.16,NE,49,0.0,7.0,68,0.00,,,0.00,meteohub,2013-04-01 06:23:00,
2013-04-01 01:29:00,22.8,13.8,30.16,NE,49,0.0,7.0,68,0.00,,,0.00,meteohub,2013-04-01 06:29:00,
2013-04-01 01:34:00,22.8,13.8,30.16,ENE,68,3.0,7.0,68,0.00,,,0.00,meteohub,2013-04-01 06:34:00,
2013-04-01 01:39:00,22.6,13.6,30.16,NE,48,3.0,7.0,68,0.00,,,0.00,meteohub,2013-04-01 06:39:00,
2013-04-01 01:45:00,22.6,14.0,30.17,ENE,64,0.0,7.0,69,0.00,,,0.00,meteohub,2013-04-01 06:45:00,
2013-04-01 01:50:00,22.5,13.8,30.17,East,80,4.0,8.0,69,0.00,,,0.00,meteohub,2013-04-01 06:50:00,
2013-04-01 01:55:00,22.5,13.8,30.17,NE,56,5.0,8.0,69,0.00,,,0.00,meteohub,2013-04-01 06:55:00,
2013-04-01 02:00:00,22.3,13.6,30.17,ENE,74,4.0,8.0,69,0.00,,,0.00,meteohub,2013-04-01 07:00:00,
2013-04-01 02:06:00,22.3,13.6,30.17,ENE,67,0.0,7.0,69,0.00,,,0.00,meteohub,2013-04-01 07:06:00,
2013-04-01 02:11:00,22.1,13.5,30.17,ENE,64,4.0,6.0,69,0.00,,,0.00,meteohub,2013-04-01 07:11:00,
2013-04-01 02:16:00,21.9,13.3,30.17,NE,51,1.0,6.0,69,0.00,,,0.00,meteohub,2013-04-01 07:16:00,
2013-04-01 02:21:00,21.9,13.3,30.17,ENE,64,0.0,6.0,69,0.00,,,0.00,meteohub,2013-04-01 07:21:00,
2013-04-01 02:26:00,21.7,13.5,30.17,ENE,60,4.0,6.0,70,0.00,,,0.00,meteohub,2013-04-01 07:26:00,
2013-04-01 02:31:00,21.7,13.5,30.17,NE,52,1.0,6.0,70,0.00,,,0.00,meteohub,2013-04-01 07:31:00,
2013-04-01 02:36:00,21.7,13.5,30.17,ENE,75,3.0,8.0,70,0.00,,,0.00,meteohub,2013-04-01 07:36:00,
2013-04-01 02:42:00,21.7,13.5,30.17,East,84,3.0,8.0,70,0.00,,,0.00,meteohub,2013-04-01 07:42:00,
2013-04-01 02:47:00,21.6,13.3,30.18,ENE,75,1.0,8.0,70,0.00,,,0.00,meteohub,2013-04-01 07:47:00,
2013-04-01 02:52:00,21.6,13.3,30.17,East,81,1.0,6.0,70,0.00,,,0.00,meteohub,2013-04-01 07:52:00,
2013-04-01 02:58:00,21.4,13.1,30.18,NE,53,2.0,6.0,70,0.00,,,0.00,meteohub,2013-04-01 07:58:00,
2013-04-01 03:03:00,21.4,13.1,30.18,NE,56,2.0,6.0,70,0.00,,,0.00,meteohub,2013-04-01 08:03:00,
2013-04-01 03:08:00,21.2,12.9,30.18,NE,44,3.0,6.0,70,0.00,,,0.00,meteohub,2013-04-01 08:08:00,
2013-04-01 03:13:00,21.0,13.1,30.18,ENE,70,2.0,5.0,71,0.00,,,0.00,meteohub,2013-04-01 08:13:00,
2013-04-01 03:18:00,21.0,13.1,30.19,ENE,61,4.0,5.0,71,0.00,,,0.00,meteohub,2013-04-01 08:18:00,
2013-04-01 03:24:00,21.0,13.1,30.19,ENE,69,3.0,6.0,71,0.00,,,0.00,meteohub,2013-04-01 08:24:00,
2013-04-01 03:29:00,21.0,13.1,30.18,ENE,67,3.0,7.0,71,0.00,,,0.00,meteohub,2013-04-01 08:29:00,
2013-04-01 03:34:00,20.8,12.9,30.19,NE,42,0.0,7.0,71,0.00,,,0.00,meteohub,2013-04-01 08:34:00,
2013-04-01 03:39:00,20.8,12.9,30.19,NE,51,0.0,7.0,71,0.00,,,0.00,meteohub,2013-04-01 08:39:00,
2013-04-01 03:44:00,20.7,12.7,30.19,ENE,64,2.0,6.0,71,0.00,,,0.00,meteohub,2013-04-01 08:44:00,
2013-04-01 03:50:00,20.7,12.7,30.19,NE,40,0.0,5.0,71,0.00,,,0.00,meteohub,2013-04-01 08:50:00,
2013-04-01 03:55:00,20.7,12.7,30.19,East,79,0.0,5.0,71,0.00,,,0.00,meteohub,2013-04-01 08:55:00,
2013-04-01 04:00:00,20.5,12.9,30.19,NE,54,2.0,11.0,72,0.00,,,0.00,meteohub,2013-04-01 09:00:00,
2013-04-01 04:05:00,20.5,12.9,30.20,ENE,59,1.0,11.0,72,0.00,,,0.00,meteohub,2013-04-01 09:05:00,
2013-04-01 04:10:00,20.3,12.7,30.20,NNE,29,0.0,7.0,72,0.00,,,0.00,meteohub,2013-04-01 09:10:00,
2013-04-01 04:15:00,20.1,12.6,30.20,NE,43,0.0,7.0,72,0.00,,,0.00,meteohub,2013-04-01 09:15:00,
2013-04-01 04:21:00,20.1,12.6,30.20,ENE,66,0.0,5.0,72,0.00,,,0.00,meteohub,2013-04-01 09:21:00,
2013-04-01 04:26:00,20.1,12.6,30.20,ENE,62,1.0,10.0,72,0.00,,,0.00,meteohub,2013-04-01 09:26:00,
2013-04-01 04:31:00,19.9,12.7,30.21,NE,51,0.0,10.0,73,0.00,,,0.00,meteohub,2013-04-01 09:31:00,
2013-04-01 04:37:00,19.9,12.4,30.21,ENE,72,0.0,10.0,72,0.00,,,0.00,meteohub,2013-04-01 09:37:00,
2013-04-01 04:42:00,19.9,12.7,30.21,East,82,0.0,5.0,73,0.00,,,0.00,meteohub,2013-04-01 09:42:00,
2013-04-01 04:47:00,19.8,12.6,30.21,NE,42,0.0,5.0,73,0.00,,,0.00,meteohub,2013-04-01 09:47:00,
2013-04-01 04:52:00,19.8,12.6,30.21,NE,53,0.0,4.0,73,0.00,,,0.00,meteohub,2013-04-01 09:52:00,
2013-04-01 04:57:00,19.8,12.6,30.21,NE,40,2.0,4.0,73,0.00,,,0.00,meteohub,2013-04-01 09:57:00,
2013-04-01 05:03:00,19.8,12.6,30.22,NE,42,3.0,3.0,73,0.00,,,0.00,meteohub,2013-04-01 10:03:00,
2013-04-01 05:08:00,19.8,12.6,30.22,NNE,33,3.0,6.0,73,0.00,,,0.00,meteohub,2013-04-01 10:08:00,
2013-04-01 05:13:00,19.8,12.6,30.22,NE,48,0.0,6.0,73,0.00,,,0.00,meteohub,2013-04-01 10:13:00,
2013-04-01 05:18:00,19.6,12.6,30.22,ENE,70,3.0,6.0,74,0.00,,,0.00,meteohub,2013-04-01 10:18:00,
2013-04-01 05:23:00,19.6,12.6,30.22,NE,45,0.0,6.0,74,0.00,,,0.00,meteohub,2013-04-01 10:23:00,
2013-04-01 05:28:00,19.4,12.6,30.22,NE,44,0.0,6.0,74,0.00,,,0.00,meteohub,2013-04-01 10:28:00,
2013-04-01 05:33:00,19.2,12.4,30.22,NE,48,0.0,5.0,74,0.00,,,0.00,meteohub,2013-04-01 10:33:00,
2013-04-01 05:39:00,19.2,12.4,30.23,ENE,74,2.0,4.0,74,0.00,,,0.00,meteohub,2013-04-01 10:39:00,
2013-04-01 05:44:00,19.2,12.4,30.23,NE,49,3.0,4.0,74,0.00,,,0.00,meteohub,2013-04-01 10:44:00,
2013-04-01 05:49:00,19.0,12.2,30.23,East,89,1.0,5.0,74,0.00,,,0.00,meteohub,2013-04-01 10:49:00,
2013-04-01 05:54:00,19.0,12.2,30.23,NE,53,1.0,5.0,74,0.00,,,0.00,meteohub,2013-04-01 10:54:00,
2013-04-01 06:00:00,19.0,12.2,30.23,NE,41,0.0,7.0,74,0.00,,,0.00,meteohub,2013-04-01 11:00:00,
2013-04-01 06:05:00,19.0,12.2,30.24,ENE,59,0.0,7.0,74,0.00,,,0.00,meteohub,2013-04-01 11:05:00,
2013-04-01 06:10:00,19.0,12.2,30.24,NE,53,0.0,6.0,74,0.00,,,0.00,meteohub,2013-04-01 11:10:00,
2013-04-01 06:15:00,18.9,12.2,30.24,North,351,0.0,6.0,75,0.00,,,0.00,meteohub,2013-04-01 11:15:00,
2013-04-01 06:21:00,18.9,12.2,30.24,NE,44,1.0,6.0,75,0.00,,,0.00,meteohub,2013-04-01 11:21:00,
2013-04-01 06:27:00,18.9,12.2,30.24,NE,44,0.0,6.0,75,0.00,,,0.00,meteohub,2013-04-01 11:27:00,
2013-04-01 06:32:00,18.7,12.0,30.25,North,0,2.0,6.0,75,0.00,,,0.00,meteohub,2013-04-01 11:32:00,
2013-04-01 06:37:00,18.7,12.0,30.24,NE,40,0.0,7.0,75,0.00,,,0.00,meteohub,2013-04-01 11:37:00,
2013-04-01 06:42:00,18.7,12.0,30.25,ENE,68,0.0,7.0,75,0.00,,,0.00,meteohub,2013-04-01 11:42:00,
2013-04-01 06:47:00,18.5,11.8,30.25,NE,51,0.0,7.0,75,0.00,,,0.00,meteohub,2013-04-01 11:47:00,
2013-04-01 06:52:00,18.5,11.8,30.25,NE,51,0.0,6.0,75,0.00,,,0.00,meteohub,2013-04-01 11:52:00,
2013-04-01 06:57:00,18.3,11.7,30.25,NE,53,0.0,10.0,75,0.00,,,0.00,meteohub,2013-04-01 11:57:00,
2013-04-01 07:02:00,18.3,11.7,30.26,NE,46,0.0,10.0,75,0.00,,,0.00,meteohub,2013-04-01 12:02:00,
2013-04-01 07:07:00,18.3,11.7,30.26,NE,49,2.0,10.0,75,0.00,,,0.00,meteohub,2013-04-01 12:07:00,
2013-04-01 07:12:00,18.3,11.7,30.27,NE,41,0.0,4.0,75,0.00,,,0.00,meteohub,2013-04-01 12:12:00,
2013-04-01 07:17:00,18.3,11.7,30.27,NE,35,3.0,8.0,75,0.00,,,0.00,meteohub,2013-04-01 12:17:00,
2013-04-01 07:22:00,18.3,11.7,30.27,NE,49,0.0,8.0,75,0.00,,,0.00,meteohub,2013-04-01 12:22:00,
2013-04-01 07:27:00,18.5,11.8,30.27,NNE,26,0.0,8.0,75,0.00,,,0.00,meteohub,2013-04-01 12:27:00,
2013-04-01 07:33:00,18.5,11.8,30.27,NE,36,5.0,9.0,75,0.00,,,0.00,meteohub,2013-04-01 12:33:00,
2013-04-01 07:38:00,18.7,12.0,30.27,NE,49,2.0,9.0,75,0.00,,,0.00,meteohub,2013-04-01 12:38:00,
2013-04-01 07:43:00,18.9,12.2,30.27,NE,52,0.0,5.0,75,0.00,,,0.00,meteohub,2013-04-01 12:43:00,
2013-04-01 07:48:00,19.0,12.2,30.28,NE,51,2.0,5.0,74,0.00,,,0.00,meteohub,2013-04-01 12:48:00,
2013-04-01 07:53:00,19.2,12.4,30.28,NE,42,6.0,6.0,74,0.00,,,0.00,meteohub,2013-04-01 12:53:00,
2013-04-01 07:59:00,19.6,12.6,30.28,NNE,24,2.0,6.0,74,0.00,,,0.00,meteohub,2013-04-01 12:59:00,
2013-04-01 08:04:00,19.8,12.6,30.28,ENE,67,2.0,6.0,73,0.00,,,0.00,meteohub,2013-04-01 13:04:00,
2013-04-01 08:09:00,20.1,12.6,30.28,NE,42,1.0,6.0,72,0.00,,,0.00,meteohub,2013-04-01 13:09:00,
2013-04-01 08:14:00,20.1,12.6,30.29,NE,40,0.0,7.0,72,0.00,,,0.00,meteohub,2013-04-01 13:14:00,
2013-04-01 08:19:00,20.5,12.6,30.29,NE,56,3.0,8.0,71,0.00,,,0.00,meteohub,2013-04-01 13:19:00,
2013-04-01 08:25:00,20.7,12.7,30.29,NE,48,4.0,8.0,71,0.00,,,0.00,meteohub,2013-04-01 13:25:00,
2013-04-01 08:30:00,20.8,12.9,30.29,NNE,22,0.0,8.0,71,0.00,,,0.00,meteohub,2013-04-01 13:30:00,
2013-04-01 08:35:00,20.8,12.6,30.29,NNE,32,6.0,8.0,70,0.00,,,0.00,meteohub,2013-04-01 13:35:00,
2013-04-01 08:40:00,20.8,12.6,30.29,ENE,74,4.0,6.0,70,0.00,,,0.00,meteohub,2013-04-01 13:40:00,
2013-04-01 08:45:00,20.8,12.2,30.29,ENE,78,1.0,10.0,69,0.00,,,0.00,meteohub,2013-04-01 13:45:00,
2013-04-01 08:51:00,21.2,12.9,30.29,NE,43,2.0,10.0,70,0.00,,,0.00,meteohub,2013-04-01 13:51:00,
2013-04-01 08:56:00,21.2,12.6,30.30,ENE,71,5.0,10.0,69,0.00,,,0.00,meteohub,2013-04-01 13:56:00,
2013-04-01 09:01:00,21.0,11.8,30.30,NNE,24,1.0,11.0,67,0.00,,,0.00,meteohub,2013-04-01 14:01:00,
2013-04-01 09:06:00,21.6,12.6,30.30,NE,55,3.0,11.0,68,0.00,,,0.00,meteohub,2013-04-01 14:06:00,
2013-04-01 09:11:00,21.7,12.7,30.30,NE,35,0.0,11.0,68,0.00,,,0.00,meteohub,2013-04-01 14:11:00,
2013-04-01 09:16:00,22.1,12.7,30.30,ENE,75,2.0,11.0,67,0.00,,,0.00,meteohub,2013-04-01 14:16:00,
2013-04-01 09:21:00,22.3,12.9,30.30,ENE,74,0.0,7.0,67,0.00,,,0.00,meteohub,2013-04-01 14:21:00,
2013-04-01 09:27:00,22.5,12.7,30.30,North,0,6.0,7.0,66,0.00,,,0.00,meteohub,2013-04-01 14:27:00,
2013-04-01 09:32:00,22.5,12.6,30.30,ENE,69,0.0,11.0,65,0.00,,,0.00,meteohub,2013-04-01 14:32:00,
2013-04-01 09:37:00,22.8,12.7,30.30,NE,40,3.0,11.0,65,0.00,,,0.00,meteohub,2013-04-01 14:37:00,
2013-04-01 09:42:00,23.4,13.6,30.30,NE,36,0.0,11.0,66,0.00,,,0.00,meteohub,2013-04-01 14:42:00,
2013-04-01 09:47:00,23.7,13.6,30.30,East,81,4.0,5.0,65,0.00,,,0.00,meteohub,2013-04-01 14:47:00,
2013-04-01 09:52:00,23.5,13.1,30.30,ENE,67,2.0,9.0,64,0.00,,,0.00,meteohub,2013-04-01 14:52:00,
2013-04-01 09:57:00,23.4,12.6,30.30,ENE,57,4.0,9.0,63,0.00,,,0.00,meteohub,2013-04-01 14:57:00,
2013-04-01 10:02:00,23.9,13.1,30.30,NE,49,4.0,9.0,63,0.00,,,0.00,meteohub,2013-04-01 15:02:00,
2013-04-01 10:07:00,24.3,13.1,30.31,ENE,73,0.0,10.0,62,0.00,,,0.00,meteohub,2013-04-01 15:07:00,
2013-04-01 10:12:00,24.3,13.5,30.31,West,279,0.0,10.0,63,0.00,,,0.00,meteohub,2013-04-01 15:12:00,
2013-04-01 10:18:00,24.8,13.6,30.30,North,355,2.0,10.0,62,0.00,,,0.00,meteohub,2013-04-01 15:18:00,
2013-04-01 10:23:00,24.6,13.1,30.31,NNE,27,5.0,9.0,61,0.00,,,0.00,meteohub,2013-04-01 15:23:00,
2013-04-01 10:28:00,24.6,13.1,30.31,NE,48,0.0,9.0,61,0.00,,,0.00,meteohub,2013-04-01 15:28:00,
2013-04-01 10:33:00,25.2,13.6,30.31,ENE,77,3.0,10.0,61,0.00,,,0.00,meteohub,2013-04-01 15:33:00,
2013-04-01 10:38:00,25.2,13.3,30.31,NE,49,3.0,10.0,60,0.00,,,0.00,meteohub,2013-04-01 15:38:00,
2013-04-01 10:43:00,25.3,13.8,30.31,NE,46,6.0,10.0,61,0.00,,,0.00,meteohub,2013-04-01 15:43:00,
2013-04-01 10:48:00,25.9,14.4,30.31,ENE,58,4.0,9.0,61,0.00,,,0.00,meteohub,2013-04-01 15:48:00,
2013-04-01 10:53:00,26.2,13.8,30.30,NE,55,3.0,7.0,59,0.00,,,0.00,meteohub,2013-04-01 15:53:00,
2013-04-01 10:58:00,26.2,13.5,30.31,ENE,78,2.0,7.0,58,0.00,,,0.00,meteohub,2013-04-01 15:58:00,
2013-04-01 11:04:00,26.8,14.0,30.31,East,87,3.0,8.0,58,0.00,,,0.00,meteohub,2013-04-01 16:04:00,
2013-04-01 11:09:00,27.3,14.5,30.31,ENE,69,2.0,8.0,58,0.00,,,0.00,meteohub,2013-04-01 16:09:00,
2013-04-01 11:14:00,27.9,14.5,30.31,East,79,3.0,8.0,57,0.00,,,0.00,meteohub,2013-04-01 16:14:00,
2013-04-01 11:20:00,27.7,13.6,30.30,NE,55,4.0,11.0,55,0.00,,,0.00,meteohub,2013-04-01 16:20:00,
2013-04-01 11:25:00,28.0,14.7,30.31,ENE,65,4.0,11.0,57,0.00,,,0.00,meteohub,2013-04-01 16:25:00,
2013-04-01 11:30:00,28.2,14.5,30.31,NNE,15,1.0,9.0,56,0.00,,,0.00,meteohub,2013-04-01 16:30:00,
2013-04-01 11:35:00,28.6,14.5,30.31,ENE,74,6.0,9.0,55,0.00,,,0.00,meteohub,2013-04-01 16:35:00,
2013-04-01 11:40:00,28.6,14.0,30.31,ENE,75,2.0,9.0,54,0.00,,,0.00,meteohub,2013-04-01 16:40:00,
2013-04-01 11:46:00,28.8,14.2,30.30,ENE,71,0.0,9.0,54,0.00,,,0.00,meteohub,2013-04-01 16:46:00,
2013-04-01 11:51:00,29.1,14.5,30.31,NE,46,2.0,9.0,54,0.00,,,0.00,meteohub,2013-04-01 16:51:00,
2013-04-01 11:57:00,29.5,14.9,30.31,ENE,59,3.0,9.0,54,0.00,,,0.00,meteohub,2013-04-01 16:57:00,
2013-04-01 12:02:00,29.5,14.5,30.31,NE,39,5.0,9.0,53,0.00,,,0.00,meteohub,2013-04-01 17:02:00,
2013-04-01 12:08:00,29.7,14.2,30.31,NE,53,2.0,9.0,52,0.00,,,0.00,meteohub,2013-04-01 17:08:00,
2013-04-01 12:13:00,30.0,14.9,30.31,East,79,3.0,11.0,53,0.00,,,0.00,meteohub,2013-04-01 17:13:00,
2013-04-01 12:18:00,29.8,14.4,30.31,ENE,65,3.0,11.0,52,0.00,,,0.00,meteohub,2013-04-01 17:18:00,
2013-04-01 12:23:00,29.8,14.4,30.31,NE,49,3.0,10.0,52,0.00,,,0.00,meteohub,2013-04-01 17:23:00,
2013-04-01 12:28:00,30.0,14.0,30.31,NE,39,3.0,10.0,51,0.00,,,0.00,meteohub,2013-04-01 17:28:00,
2013-04-01 12:33:00,30.2,13.8,30.31,NE,45,3.0,11.0,50,0.00,,,0.00,meteohub,2013-04-01 17:33:00,
2013-04-01 12:39:00,30.4,14.0,30.30,NE,50,1.0,11.0,50,0.00,,,0.00,meteohub,2013-04-01 17:39:00,
2013-04-01 12:44:00,31.5,14.5,30.30,ENE,63,2.0,11.0,49,0.00,,,0.00,meteohub,2013-04-01 17:44:00,
2013-04-01 12:49:00,31.3,14.4,30.30,ENE,69,3.0,10.0,49,0.00,,,0.00,meteohub,2013-04-01 17:49:00,
2013-04-01 12:54:00,31.5,14.5,30.30,NE,40,1.0,10.0,49,0.00,,,0.00,meteohub,2013-04-01 17:54:00,
2013-04-01 12:59:00,32.0,16.3,30.31,ENE,57,1.0,10.0,52,0.00,,,0.00,meteohub,2013-04-01 17:59:00,
2013-04-01 13:04:00,32.2,14.2,30.30,NE,53,3.0,10.0,47,0.00,,,0.00,meteohub,2013-04-01 18:04:00,
2013-04-01 13:09:00,32.4,14.4,30.30,NNE,29,0.0,9.0,47,0.00,,,0.00,meteohub,2013-04-01 18:09:00,
2013-04-01 13:14:00,32.5,16.0,30.30,NNE,33,1.0,9.0,50,0.00,,,0.00,meteohub,2013-04-01 18:14:00,
2013-04-01 13:19:00,32.4,15.3,30.30,North,0,0.0,10.0,49,0.00,,,0.00,meteohub,2013-04-01 18:19:00,
2013-04-01 13:25:00,33.3,15.3,30.30,North,0,4.0,10.0,47,0.00,,,0.00,meteohub,2013-04-01 18:25:00,
2013-04-01 13:30:00,32.7,15.3,30.30,ENE,71,3.0,12.0,48,0.00,,,0.00,meteohub,2013-04-01 18:30:00,
2013-04-01 13:35:00,32.9,15.4,30.29,NE,45,6.0,12.0,48,0.00,,,0.00,meteohub,2013-04-01 18:35:00,
2013-04-01 13:40:00,33.8,15.6,30.29,ENE,70,8.0,10.0,47,0.00,,,0.00,meteohub,2013-04-01 18:40:00,
2013-04-01 13:46:00,33.1,15.4,30.29,ENE,67,3.0,11.0,48,0.00,,,0.00,meteohub,2013-04-01 18:46:00,
2013-04-01 13:51:00,33.3,15.3,30.30,ENE,78,3.0,11.0,47,0.00,,,0.00,meteohub,2013-04-01 18:51:00,
2013-04-01 13:56:00,32.7,14.2,30.29,ENE,71,3.0,11.0,46,0.00,,,0.00,meteohub,2013-04-01 18:56:00,
2013-04-01 14:01:00,33.3,15.6,30.30,North,0,4.0,11.0,48,0.00,,,0.00,meteohub,2013-04-01 19:01:00,
2013-04-01 14:07:00,33.3,14.7,30.30,NE,46,3.0,11.0,46,0.00,,,0.00,meteohub,2013-04-01 19:07:00,
2013-04-01 14:12:00,33.4,15.4,30.30,NE,35,3.0,12.0,47,0.00,,,0.00,meteohub,2013-04-01 19:12:00,
2013-04-01 14:17:00,33.8,15.6,30.30,NE,51,4.0,12.0,47,0.00,,,0.00,meteohub,2013-04-01 19:17:00,
2013-04-01 14:22:00,33.6,16.0,30.29,East,82,4.0,12.0,48,0.00,,,0.00,meteohub,2013-04-01 19:22:00,
2013-04-01 14:27:00,33.6,15.1,30.30,NE,36,4.0,15.0,46,0.00,,,0.00,meteohub,2013-04-01 19:27:00,
2013-04-01 14:32:00,33.8,14.7,30.29,ENE,74,2.0,15.0,45,0.00,,,0.00,meteohub,2013-04-01 19:32:00,
2013-04-01 14:37:00,34.7,16.0,30.29,ENE,65,3.0,9.0,46,0.00,,,0.00,meteohub,2013-04-01 19:37:00,
2013-04-01 14:42:00,35.1,15.3,30.29,ENE,78,5.0,9.0,44,0.00,,,0.00,meteohub,2013-04-01 19:42:00,
2013-04-01 14:48:00,34.9,15.6,30.29,ENE,69,5.0,10.0,45,0.00,,,0.00,meteohub,2013-04-01 19:48:00,
2013-04-01 14:53:00,35.2,16.0,30.29,ENE,73,1.0,10.0,45,0.00,,,0.00,meteohub,2013-04-01 19:53:00,
2013-04-01 14:58:00,35.2,15.4,30.29,ENE,71,3.0,10.0,44,0.00,,,0.00,meteohub,2013-04-01 19:58:00,
2013-04-01 15:03:00,34.3,14.7,30.29,ENE,74,5.0,9.0,44,0.00,,,0.00,meteohub,2013-04-01 20:03:00,
2013-04-01 15:08:00,34.9,16.2,30.29,NE,42,5.0,11.0,46,0.00,,,0.00,meteohub,2013-04-01 20:08:00,
2013-04-01 15:13:00,34.9,15.6,30.29,East,86,4.0,12.0,45,0.00,,,0.00,meteohub,2013-04-01 20:13:00,
2013-04-01 15:19:00,34.9,15.3,30.29,NNE,33,1.0,12.0,44,0.00,,,0.00,meteohub,2013-04-01 20:19:00,
2013-04-01 15:24:00,35.1,15.3,30.29,NE,47,2.0,12.0,44,0.00,,,0.00,meteohub,2013-04-01 20:24:00,
2013-04-01 15:29:00,35.4,16.2,30.28,NNE,15,0.0,13.0,45,0.00,,,0.00,meteohub,2013-04-01 20:29:00,
2013-04-01 15:34:00,35.2,16.0,30.29,ENE,61,2.0,13.0,45,0.00,,,0.00,meteohub,2013-04-01 20:34:00,
2013-04-01 15:39:00,34.7,15.4,30.29,NE,50,6.0,13.0,45,0.00,,,0.00,meteohub,2013-04-01 20:39:00,
2013-04-01 15:45:00,35.1,15.8,30.28,NE,49,1.0,14.0,45,0.00,,,0.00,meteohub,2013-04-01 20:45:00,
2013-04-01 15:50:00,35.1,16.3,30.28,ENE,69,3.0,14.0,46,0.00,,,0.00,meteohub,2013-04-01 20:50:00,
2013-04-01 15:55:00,34.9,16.2,30.28,NE,47,5.0,12.0,46,0.00,,,0.00,meteohub,2013-04-01 20:55:00,
2013-04-01 16:01:00,34.9,16.2,30.28,ENE,57,7.0,11.0,46,0.00,,,0.00,meteohub,2013-04-01 21:01:00,
2013-04-01 16:06:00,34.9,16.2,30.28,NE,42,4.0,14.0,46,0.00,,,0.00,meteohub,2013-04-01 21:06:00,
2013-04-01 16:11:00,35.1,17.4,30.28,NE,55,3.0,14.0,48,0.00,,,0.00,meteohub,2013-04-01 21:11:00,
2013-04-01 16:16:00,35.4,17.2,30.28,NNE,33,0.0,14.0,47,0.00,,,0.00,meteohub,2013-04-01 21:16:00,
2013-04-01 16:21:00,36.0,17.2,30.28,East,91,5.0,11.0,46,0.00,,,0.00,meteohub,2013-04-01 21:21:00,
2013-04-01 16:27:00,35.6,17.4,30.28,East,80,4.0,9.0,47,0.00,,,0.00,meteohub,2013-04-01 21:27:00,
2013-04-01 16:32:00,34.5,16.3,30.28,NE,56,1.0,10.0,47,0.00,,,0.00,meteohub,2013-04-01 21:32:00,
2013-04-01 16:37:00,34.9,16.2,30.28,NE,52,14.0,14.0,46,0.00,,,0.00,meteohub,2013-04-01 21:37:00,
2013-04-01 16:42:00,34.3,16.2,30.28,ENE,67,4.0,14.0,47,0.00,,,0.00,meteohub,2013-04-01 21:42:00,
2013-04-01 16:47:00,35.1,17.4,30.28,NE,55,6.0,15.0,48,0.00,,,0.00,meteohub,2013-04-01 21:47:00,
2013-04-01 16:52:00,34.9,16.7,30.28,NE,40,9.0,15.0,47,0.00,,,0.00,meteohub,2013-04-01 21:52:00,
2013-04-01 16:57:00,34.3,17.2,30.28,NE,36,4.0,10.0,49,0.00,,,0.00,meteohub,2013-04-01 21:57:00,
2013-04-01 17:02:00,34.2,16.5,30.28,NNE,26,7.0,10.0,48,0.00,,,0.00,meteohub,2013-04-01 22:02:00,
2013-04-01 17:07:00,34.0,16.9,30.28,NE,53,3.0,10.0,49,0.00,,,0.00,meteohub,2013-04-01 22:07:00,
2013-04-01 17:12:00,34.0,16.9,30.28,NE,55,4.0,10.0,49,0.00,,,0.00,meteohub,2013-04-01 22:12:00,
2013-04-01 17:17:00,33.8,16.7,30.28,ENE,70,5.0,11.0,49,0.00,,,0.00,meteohub,2013-04-01 22:17:00,
2013-04-01 17:22:00,34.0,16.9,30.28,ENE,70,5.0,14.0,49,0.00,,,0.00,meteohub,2013-04-01 22:22:00,
2013-04-01 17:28:00,34.0,16.9,30.28,East,87,4.0,14.0,49,0.00,,,0.00,meteohub,2013-04-01 22:28:00,
2013-04-01 17:33:00,33.6,16.5,30.28,North,5,3.0,13.0,49,0.00,,,0.00,meteohub,2013-04-01 22:33:00,
2013-04-01 17:38:00,33.6,16.9,30.28,North,11,1.0,13.0,50,0.00,,,0.00,meteohub,2013-04-01 22:38:00,
2013-04-01 17:44:00,34.0,17.2,30.28,NE,37,2.0,12.0,50,0.00,,,0.00,meteohub,2013-04-01 22:44:00,
2013-04-01 17:49:00,34.0,16.9,30.28,ENE,71,4.0,9.0,49,0.00,,,0.00,meteohub,2013-04-01 22:49:00,
2013-04-01 17:54:00,33.6,16.5,30.28,NNE,26,4.0,7.0,49,0.00,,,0.00,meteohub,2013-04-01 22:54:00,
2013-04-01 17:59:00,33.4,16.9,30.28,NE,51,3.0,10.0,50,0.00,,,0.00,meteohub,2013-04-01 22:59:00,
2013-04-01 18:04:00,33.3,16.7,30.28,NNE,32,0.0,13.0,50,0.00,,,0.00,meteohub,2013-04-01 23:04:00,
2013-04-01 18:10:00,33.1,16.9,30.28,ENE,68,1.0,13.0,51,0.00,,,0.00,meteohub,2013-04-01 23:10:00,
2013-04-01 18:15:00,33.1,16.9,30.28,NE,54,5.0,13.0,51,0.00,,,0.00,meteohub,2013-04-01 23:15:00,
2013-04-01 18:20:00,33.1,16.9,30.28,East,85,5.0,7.0,51,0.00,,,0.00,meteohub,2013-04-01 23:20:00,
2013-04-01 18:25:00,32.9,16.7,30.28,ENE,60,1.0,9.0,51,0.00,,,0.00,meteohub,2013-04-01 23:25:00,
2013-04-01 18:30:00,32.7,17.1,30.28,NE,37,5.0,9.0,52,0.00,,,0.00,meteohub,2013-04-01 23:30:00,
2013-04-01 18:35:00,32.5,16.9,30.28,ENE,65,4.0,10.0,52,0.00,,,0.00,meteohub,2013-04-01 23:35:00,
2013-04-01 18:41:00,32.5,17.2,30.28,ENE,64,2.0,10.0,53,0.00,,,0.00,meteohub,2013-04-01 23:41:00,
2013-04-01 18:46:00,32.4,17.1,30.28,NE,55,3.0,10.0,53,0.00,,,0.00,meteohub,2013-04-01 23:46:00,
2013-04-01 18:51:00,32.4,17.1,30.28,ENE,65,3.0,10.0,53,0.00,,,0.00,meteohub,2013-04-01 23:51:00,
2013-04-01 18:56:00,32.0,16.9,30.28,North,355,5.0,10.0,53,0.00,,,0.00,meteohub,2013-04-01 23:56:00,
2013-04-01 19:01:00,31.8,17.1,30.28,ENE,78,2.0,10.0,54,0.00,,,0.00,meteohub,2013-04-02 00:01:00,
2013-04-01 19:06:00,31.6,17.2,30.28,North,0,3.0,9.0,55,0.00,,,0.00,meteohub,2013-04-02 00:06:00,
2013-04-01 19:12:00,31.5,17.2,30.28,NE,39,3.0,11.0,55,0.00,,,0.00,meteohub,2013-04-02 00:12:00,
2013-04-01 19:17:00,31.3,17.4,30.28,NNE,25,7.0,11.0,56,0.00,,,0.00,meteohub,2013-04-02 00:17:00,
2013-04-01 19:22:00,31.1,17.6,30.28,NE,49,2.0,15.0,57,0.00,,,0.00,meteohub,2013-04-02 00:22:00,
2013-04-01 19:27:00,30.7,17.2,30.28,ENE,70,2.0,15.0,57,0.00,,,0.00,meteohub,2013-04-02 00:27:00,
2013-04-01 19:33:00,30.6,17.1,30.28,NNE,33,4.0,15.0,57,0.00,,,0.00,meteohub,2013-04-02 00:33:00,
2013-04-01 19:38:00,30.6,17.6,30.28,NE,52,6.0,10.0,58,0.00,,,0.00,meteohub,2013-04-02 00:38:00,
2013-04-01 19:43:00,30.4,17.4,30.27,NNE,28,0.0,10.0,58,0.00,,,0.00,meteohub,2013-04-02 00:43:00,
2013-04-01 19:48:00,30.0,17.4,30.28,ENE,58,0.0,9.0,59,0.00,,,0.00,meteohub,2013-04-02 00:48:00,
2013-04-01 19:53:00,29.8,17.2,30.28,ENE,58,5.0,6.0,59,0.00,,,0.00,meteohub,2013-04-02 00:53:00,
2013-04-01 19:58:00,29.8,17.2,30.28,NE,34,0.0,6.0,59,0.00,,,0.00,meteohub,2013-04-02 00:58:00,
2013-04-01 20:04:00,29.7,17.4,30.28,ENE,66,5.0,6.0,60,0.00,,,0.00,meteohub,2013-04-02 01:04:00,
2013-04-01 20:09:00,29.7,17.4,30.28,NE,42,0.0,5.0,60,0.00,,,0.00,meteohub,2013-04-02 01:09:00,
2013-04-01 20:14:00,29.5,17.2,30.28,NE,53,1.0,10.0,60,0.00,,,0.00,meteohub,2013-04-02 01:14:00,
2013-04-01 20:19:00,29.1,16.9,30.28,NE,36,0.0,10.0,60,0.00,,,0.00,meteohub,2013-04-02 01:19:00,
2013-04-01 20:24:00,29.1,17.4,30.28,NE,36,2.0,10.0,61,0.00,,,0.00,meteohub,2013-04-02 01:24:00,
2013-04-01 20:30:00,28.9,17.2,30.28,North,5,0.0,4.0,61,0.00,,,0.00,meteohub,2013-04-02 01:30:00,
2013-04-01 20:35:00,28.9,17.2,30.28,NNE,15,0.0,4.0,61,0.00,,,0.00,meteohub,2013-04-02 01:35:00,
2013-04-01 20:40:00,28.8,17.4,30.29,NE,37,0.0,7.0,62,0.00,,,0.00,meteohub,2013-04-02 01:40:00,
2013-04-01 20:45:00,28.8,17.8,30.29,NE,55,1.0,7.0,63,0.00,,,0.00,meteohub,2013-04-02 01:45:00,
2013-04-01 20:50:00,28.6,17.6,30.29,NE,44,0.0,6.0,63,0.00,,,0.00,meteohub,2013-04-02 01:50:00,
2013-04-01 20:55:00,28.4,17.4,30.29,NE,41,0.0,6.0,63,0.00,,,0.00,meteohub,2013-04-02 01:55:00,
2013-04-01 21:01:00,28.2,17.6,30.29,NNE,32,0.0,6.0,64,0.00,,,0.00,meteohub,2013-04-02 02:01:00,
2013-04-01 21:06:00,28.2,17.6,30.29,NE,40,0.0,5.0,64,0.00,,,0.00,meteohub,2013-04-02 02:06:00,
2013-04-01 21:11:00,28.0,17.8,30.29,NE,39,1.0,4.0,65,0.00,,,0.00,meteohub,2013-04-02 02:11:00,
2013-04-01 21:16:00,27.9,17.6,30.29,NNE,28,0.0,4.0,65,0.00,,,0.00,meteohub,2013-04-02 02:16:00,
2013-04-01 21:22:00,27.9,17.6,30.29,NNE,32,1.0,5.0,65,0.00,,,0.00,meteohub,2013-04-02 02:22:00,
2013-04-01 21:27:00,27.7,17.4,30.29,NE,51,1.0,5.0,65,0.00,,,0.00,meteohub,2013-04-02 02:27:00,
2013-04-01 21:32:00,27.7,17.8,30.29,NE,42,0.0,6.0,66,0.00,,,0.00,meteohub,2013-04-02 02:32:00,
2013-04-01 21:37:00,27.7,17.8,30.29,NE,38,1.0,6.0,66,0.00,,,0.00,meteohub,2013-04-02 02:37:00,
2013-04-01 21:42:00,27.5,17.6,30.29,NE,37,1.0,6.0,66,0.00,,,0.00,meteohub,2013-04-02 02:42:00,
2013-04-01 21:48:00,27.5,17.6,30.29,NNE,28,3.0,4.0,66,0.00,,,0.00,meteohub,2013-04-02 02:48:00,
2013-04-01 21:53:00,27.3,17.4,30.30,NNE,32,0.0,5.0,66,0.00,,,0.00,meteohub,2013-04-02 02:53:00,
2013-04-01 21:58:00,27.1,17.2,30.30,ENE,57,3.0,5.0,66,0.00,,,0.00,meteohub,2013-04-02 02:58:00,
2013-04-01 22:03:00,27.1,17.6,30.30,NE,55,0.0,4.0,67,0.00,,,0.00,meteohub,2013-04-02 03:03:00,
2013-04-01 22:08:00,27.0,17.4,30.30,NNE,14,0.0,4.0,67,0.00,,,0.00,meteohub,2013-04-02 03:08:00,
2013-04-01 22:13:00,27.0,17.4,30.30,NE,44,2.0,5.0,67,0.00,,,0.00,meteohub,2013-04-02 03:13:00,
2013-04-01 22:19:00,26.8,17.6,30.30,NE,40,0.0,5.0,68,0.00,,,0.00,meteohub,2013-04-02 03:19:00,
2013-04-01 22:24:00,26.6,17.4,30.30,NNE,30,1.0,5.0,68,0.00,,,0.00,meteohub,2013-04-02 03:24:00,
2013-04-01 22:29:00,26.6,17.4,30.30,NE,46,0.0,5.0,68,0.00,,,0.00,meteohub,2013-04-02 03:29:00,
2013-04-01 22:35:00,26.4,17.2,30.30,NE,46,0.0,6.0,68,0.00,,,0.00,meteohub,2013-04-02 03:35:00,
2013-04-01 22:40:00,26.2,17.1,30.31,NE,46,0.0,6.0,68,0.00,,,0.00,meteohub,2013-04-02 03:40:00,
2013-04-01 22:45:00,26.2,17.4,30.31,NE,42,1.0,4.0,69,0.00,,,0.00,meteohub,2013-04-02 03:45:00,
2013-04-01 22:50:00,26.2,17.4,30.31,NE,42,0.0,4.0,69,0.00,,,0.00,meteohub,2013-04-02 03:50:00,
2013-04-01 22:56:00,26.2,17.4,30.30,NE,45,1.0,4.0,69,0.00,,,0.00,meteohub,2013-04-02 03:56:00,
2013-04-01 23:00:00,26.1,17.2,30.30,NE,45,0.0,5.0,69,0.00,,,0.00,meteohub,2013-04-02 04:00:00,
2013-04-01 23:01:00,26.1,17.2,30.30,NE,45,2.0,5.0,69,0.00,,,0.00,meteohub,2013-04-02 04:01:00,
2013-04-01 23:02:00,26.1,17.2,30.30,NE,45,2.0,5.0,69,0.00,,,0.00,meteohub,2013-04-02 04:02:00,
2013-04-01 23:07:00,26.1,17.2,30.30,NE,44,4.0,5.0,69,0.00,,,0.00,meteohub,2013-04-02 04:07:00,
2013-04-01 23:12:00,26.1,17.2,30.30,NE,42,0.0,5.0,69,0.00,,,0.00,meteohub,2013-04-02 04:12:00,
2013-04-01 23:17:00,25.9,17.1,30.30,NE,42,0.0,4.0,69,0.00,,,0.00,meteohub,2013-04-02 04:17:00,
2013-04-01 23:22:00,25.5,17.1,30.30,NE,42,0.0,4.0,70,0.00,,,0.00,meteohub,2013-04-02 04:22:00,
2013-04-01 23:28:00,25.5,17.1,30.30,NE,53,0.0,4.0,70,0.00,,,0.00,meteohub,2013-04-02 04:28:00,
2013-04-01 23:33:00,25.5,17.1,30.30,NE,49,1.0,4.0,70,0.00,,,0.00,meteohub,2013-04-02 04:33:00,
2013-04-01 23:38:00,25.3,16.9,30.30,NE,49,0.0,4.0,70,0.00,,,0.00,meteohub,2013-04-02 04:38:00,
2013-04-01 23:43:00,25.3,16.9,30.30,NNE,28,2.0,5.0,70,0.00,,,0.00,meteohub,2013-04-02 04:43:00,
2013-04-01 23:48:00,25.2,17.1,30.30,NE,35,3.0,5.0,71,0.00,,,0.00,meteohub,2013-04-02 04:48:00,
2013-04-01 23:53:00,25.2,17.1,30.30,NE,38,0.0,5.0,71,0.00,,,0.00,meteohub,2013-04-02 04:53:00,
2013-04-01 23:59:00,25.2,17.1,30.30,NE,36,1.0,5.0,71,0.00,,,0.00,meteohub,2013-04-02 04:59:00,